Regional Weather Roundup
Issued by NWS

Home | Current Version | Previous Version | Graphics & Text | Print | Product List | Glossary On
Versions: 1 2 3 4 5 6 7 8 9 10 11 12 13 14 15 16 17 18 19 20 21 22 23 24 25 26 27 28 29 30 31 32 33 34 35 36 37 38 39 40 41 42 43 44 45 46 47 48 49 50
000
ASUS43 KFSD 300902
RWRSD

WEATHER ROUNDUP FOR SOUTH DAKOTA
NATIONAL WEATHER SERVICE SIOUX FALLS SD
400 AM CDT FRI SEP 30 2016

NOTE: "FAIR" INDICATES FEW OR NO CLOUDS BELOW 12,000 FEET WITH NO
SIGNIFICANT WEATHER AND/OR OBSTRUCTIONS TO VISIBILITY.


SDZ001>005-009-010-012>017-301000-
NORTHWEST AND NORTH CENTRAL SOUTH DAKOTA

CITY           SKY/WX    TMP DP  RH WIND       PRES   REMARKS
BUFFALO          N/A     60  44  55 SE13      30.03S
FAITH            N/A     55  42  61 SE20      30.13S
MOBRIDGE       CLEAR     56  46  69 SE16      30.20F
$$

SDZ012>016-024>037-041>051-057-063-072>074-301000-
SOUTHWEST AND SOUTH CENTRAL SOUTH DAKOTA

CITY           SKY/WX    TMP DP  RH WIND       PRES   REMARKS
RAPID CTY ARPT PTCLDY    58  43  57 SE14      30.14F
PIERRE         CLEAR     52  45  77 SE14      30.22F
CUSTER         CLOUDY    57  41  55 CALM      30.24F
ELLSWORTH AFB  MOCLDY    60  43  53 S13       30.11F
PHILIP         PTCLDY    50  42  74 E8        30.18F
PINE RIDGE     CLEAR     57  41  55 S22G35    30.17F
WINNER         FAIR      53  45  74 S15       30.26S
$$

SDZ004>011-016>023-039-040-301000-
NORTHEAST SOUTH DAKOTA

CITY           SKY/WX    TMP DP  RH WIND       PRES   REMARKS
ABERDEEN       CLEAR     47  44  90 SE7       30.30F
WATERTOWN      CLEAR     49  45  86 SE3       30.34F
SISSETON         N/A     40  39  97 S3        30.34F
$$

SDZ017-020-022-023-036>040-048>070-301000-
SOUTHEAST SOUTH DAKOTA

CITY           SKY/WX    TMP DP  RH WIND       PRES   REMARKS
SIOUX FALLS    CLEAR     44  42  93 NE5       30.34F
HURON          CLEAR     49  45  86 SE10      30.30F
MITCHELL       CLEAR     47  44  90 SE7       30.31F
YANKTON        CLEAR     45  45 100 E3        30.31F
$$

ABBREVIATIONS USED IN REMARKS
   TC - TEMPERATURE IN CELSIUS
  WCI - WIND CHILL INDEX
   HX - HEAT INDEX
  VSB - VISIBILITY





USA.gov is the U.S. government's official web portal to all federal, state and local government web resources and services.